Location: Casteau
(50.5142°N, 4.0161°E)
Time: 04:42:11
(UTC+00:00)

Cosmos 1844 Rocket - Visible Passes

Search period start: 18 January 2021 00:00
Search period end: 28 January 2021 00:00
Orbit: 824 x 845 km, 71.0° (Epoch: 17 January)

Date Brightness Start Highest point End Pass type
(mag) Time Alt. Az. Time Alt. Az. Time Alt. Az.
18 Jan 4.4 04:00:06 24° SE 04:00:06 24° SE 04:02:13 10° SSE visible
18 Jan 4.3 05:41:50 16° SW 05:41:50 16° SW 05:43:42 10° SW visible
18 Jan 4.5 17:06:47 10° ESE 17:08:17 11° E 17:09:39 10° E visible
18 Jan 2.6 18:45:28 10° SSW 18:51:03 64° ESE 18:51:22 63° E visible
18 Jan 4.8 20:30:26 10° WSW 20:33:05 23° W 20:33:05 23° W visible
19 Jan 5.0 03:44:20 13° SE 03:44:20 13° SE 03:44:58 10° SE visible
19 Jan 4.6 05:26:04 13° SW 05:26:04 13° SW 05:26:45 10° SSW visible
19 Jan 2.7 18:28:17 10° S 18:33:50 59° ESE 18:35:27 43° ENE visible
19 Jan 4.3 20:13:03 10° WSW 20:17:09 30° WNW 20:17:09 30° WNW visible
20 Jan 2.8 18:11:08 10° S 18:16:38 55° ESE 18:19:25 28° NE visible
20 Jan 4.1 19:55:42 10° WSW 20:00:48 34° NW 20:01:07 34° NW visible
21 Jan 2.9 17:53:59 10° S 17:59:25 50° ESE 18:03:17 19° NE visible
21 Jan 4.0 19:38:20 10° WSW 19:43:32 36° NW 19:44:59 31° NNW visible
22 Jan 3.0 17:36:51 10° S 17:42:14 46° ESE 17:47:03 13° NE visible
22 Jan 3.9 19:21:00 10° WSW 19:26:16 38° NW 19:28:45 26° N visible
22 Jan 5.5 21:09:15 10° NW 21:10:26 12° NW 21:10:26 12° NW visible
23 Jan 3.1 17:19:44 10° S 17:25:02 43° ESE 17:30:21 10° NE visible
23 Jan 3.8 19:03:39 10° WSW 19:08:59 41° NW 19:12:26 20° N visible
23 Jan 5.3 20:51:43 10° NW 20:54:06 14° NNW 20:54:06 14° NNW visible
24 Jan 3.2 17:02:37 10° S 17:07:50 40° ESE 17:13:04 10° NE visible
24 Jan 3.7 18:46:19 10° WSW 18:51:43 44° NW 18:56:02 16° NNE visible
24 Jan 5.2 20:34:11 10° WNW 20:37:11 14° NNW 20:37:43 14° NNW visible
25 Jan 3.6 18:29:00 10° SW 18:34:27 47° NW 18:39:33 12° NNE visible
25 Jan 5.1 20:16:40 10° WNW 20:19:50 15° NNW 20:21:15 14° NNW visible
26 Jan 3.5 18:11:41 10° SW 18:17:11 50° NW 18:22:42 10° NNE visible
26 Jan 5.1 19:59:11 10° WNW 20:02:30 16° NNW 20:04:43 13° N visible
27 Jan 3.4 17:54:23 10° SW 17:59:56 53° NW 18:05:29 10° NNE visible
27 Jan 5.1 19:41:42 10° WNW 19:45:10 16° NNW 19:48:08 11° N visible
